Regional Weather Roundup
Issued by NWS

Home | Current Version | Previous Version | Graphics & Text | Print | Product List | Glossary On
Versions: 1 2 3 4 5 6 7 8 9 10 11 12 13 14 15 16 17 18 19 20 21 22 23 24 25 26 27 28
000
ASUS45 KSLC 201010
RWRUT

UTAH REGIONAL WEATHER ROUNDUP
NATIONAL WEATHER SERVICE SALT LAKE CITY UT
400 AM MDT THU JUL 20 2017

UTZ001>011-023>025-201100-

NORTHERN UTAH

CITY           SKY/WX    TMP DP  RH WIND       PRES   REMARKS
BRIGHAM CITY   MOCLDY    73  54  52 SE3       30.06S
HILL AFB       PTCLDY    73  52  46 E13       30.08S
LOGAN          MOCLDY    68  55  63 W3        30.06S
OGDEN          PTCLDY    75  53  46 S5        30.05S
SALT LAKE CITY PTCLDY    79  56  45 SE16      30.04R
TOOELE VALLEY  PTCLDY    79  54  41 S13       30.03S
WENDOVER       CLEAR     80  56  43 NE8       29.99R
HEBER CITY     MOCLDY    61  54  77 CALM      30.19R
WEST JORDAN    MOCLDY    74  61  62 S16G22    30.08S

$$

UTZ011>015-024>027-201100-

CENTRAL/NORTHEAST UTAH

CITY           SKY/WX    TMP DP  RH WIND       PRES   REMARKS
PROVO AIRPORT  MOCLDY    69  57  65 SE9       30.10S
MOAB/CANYONLAN PTCLDY    72  61  68 E7        30.12R
DELTA          PTCLDY    72  52  49 SE7       30.11S
PRICE          MOCLDY    68  50  52 N3        30.22R
ROOSEVELT      CLOUDY    63  55  77 SW5       30.23R
VERNAL         CLOUDY    62  60  93 S3        30.21R

$$

UTZ013>016-019>022-027-201100-

SOUTHERN UTAH

CITY           SKY/WX    TMP DP  RH WIND       PRES   REMARKS
BRYCE CANYON   CLEAR     51  50  96 CALM      30.38R
CEDAR CITY     MOCLDY    68  60  75 SE3       30.19S
MILFORD        PTCLDY    69  58  67 SW9       30.15R
ST GEORGE      PTSUNNY   79  62  56 E9        30.04R
HANKSVILLE     PTCLDY    72  50  46 CALM      30.14R
BLANDING       CLOUDY    64  56  77 NW9       30.37F

$$

REGIONAL REPORTS     COLORADO/ARIZONA

CITY           SKY/WX    TMP DP  RH WIND       PRES   REMARKS
CRAIG, CO      CLOUDY    61  53  75 SE9       30.27F
GRAND JUNCTION CLOUDY    68  61  78 E9        30.16F
RIFLE, CO      CLOUDY    66  59  78 NE7       30.25F
MONTROSE, CO   CLOUDY    65  57  75 SE12      30.27F
CORTEZ, CO     CLEAR     63  57  81 NE7       30.28S
COLORADO CITY    N/A     68  64  88 S5        30.21R
PAGE, AZ       CLEAR     75  57  53 S3        30.13S
GRAND CANYON   CLEAR     55  54  96 CALM      30.32S
KINGMAN, AZ    CLEAR     73  65  75 SE14      30.08R
FLAGSTAFF, AZ  CLOUDY    56  54  93 E3        30.36S

$$

REGIONAL REPORTS    NEVADA/IDAHO/WYOMING

CITY           SKY/WX    TMP DP  RH WIND       PRES   REMARKS
LAS VEGAS, NV  MOCLDY    84  67  56 CALM      29.95S
ELY, NY        CLEAR     66  52  60 SW14      30.20F
ELKO, NV       PTCLDY    58  25  28 CALM      30.09R
POCATELLO, ID  CLOUDY    63  51  65 NE5       30.03S
BURLEY, ID     PTCLDY    61  50  67 CALM      29.99S
FORT BRIDGER,  SUNNY     61  48  63 NW8       30.30F
EVANSTON, WY   CLOUDY    61  50  67 S5        30.28S
ROCK SPRINGS,  CLOUDY    61  51  70 S9        30.26S
KEMMERER, WY     N/A     55  45  67 N8        30.30S

$$




USA.gov is the U.S. government's official web portal to all federal, state and local government web resources and services.